Weather History for Ogden, UT

Change the Weather History Date:

Monday, October 3, 2011

  Actual Average Record
Temperature  
Mean Temperature 70 °F -  
Max Temperature 82 °F 72 °F 87 °F (1963)
Min Temperature 57 °F 41 °F 30 °F (1969)
Cooling Degree Days 4    
Growing Degree Days 20 (Base 50)    
Moisture  
Dew Point 38 °F    
Average Humidity 33    
Maximum Humidity 47    
Minimum Humidity 15    
Precipitation  
Precipitation 0.00 in - - ()
Sea Level Pressure  
Sea Level Pressure 29.90 in    
Wind  
Wind Speed 12 mph (SSE)    
Max Wind Speed 17 mph    
Max Gust Speed 26 mph    
Visibility 10 miles    
Events Rain , Thunderstorm    
Averages and records for this station are not official NWS values.
T = Trace of Precipitation, MM = Missing Value Source: NWS Daily Summary

Daily Weather History Graph

Daily Weather History Graph

Search for Another Location

Airport:

Trip Planner

Search our weather history database for the weather conditions in past years. The results will help you decide how hot, cold, wet, or windy it might be!

Date:

Astronomy

Oct. 03, 2011 Rise Set
Actual Time 7:26 AM MDT 7:06 PM MDT
Civil Twilight 6:59 AM MDT 7:34 PM MDT
Nautical Twilight 6:27 AM MDT 8:06 PM MDT
Astronomical Twilight 5:54 AM MDT 8:38 PM MDT
Moon 2:30 PM MDT (10/3) No Moon Set
Length of Visible Light 12h 35m
Length of Day
11h 40m
Waxing Crescent, 46% of the Moon is Illuminated
Oct 3
Waxing Crescent
Oct 3
First Quarter
Oct 11
Full
Oct 19
Last Quarter
Oct 26
New

Hourly Weather History & Observations

Time (MDT) Temp. Dew Point Humidity Pressure Visibility Wind Dir Wind Speed Gust Speed Precip Events Conditions
12:53 AM 64.4 °F 35.6 °F 34% 30.07 in 10.0 mi SSE 12.7 mph - N/A   Clear
1:53 AM 63.0 °F 34.0 °F 34% 29.92 in 10.0 mi South 13.8 mph - N/A   Clear
2:53 AM 63.0 °F 34.0 °F 34% 29.91 in 10.0 mi South 13.8 mph - N/A   Clear
3:53 AM 62.1 °F 35.1 °F 37% 29.91 in 10.0 mi South 12.7 mph - N/A   Clear
4:53 AM 60.8 °F 35.6 °F 39% 30.06 in 10.0 mi South 12.7 mph - N/A   Clear
5:53 AM 60.1 °F 35.1 °F 39% 29.92 in 10.0 mi South 12.7 mph - N/A   Clear
6:53 AM 59.0 °F 36.0 °F 42% 29.94 in 10.0 mi SSE 12.7 mph - N/A   Clear
7:53 AM 57.0 °F 36.0 °F 45% 29.98 in 10.0 mi SSE 8.1 mph - N/A   Clear
8:53 AM 61.0 °F 37.0 °F 41% 29.97 in 10.0 mi SSE 10.4 mph - N/A   Partly Cloudy
9:53 AM 68.0 °F 39.0 °F 35% 29.96 in 10.0 mi South 11.5 mph - N/A   Scattered Clouds
10:53 AM 71.1 °F 39.0 °F 31% 29.95 in 10.0 mi SSE 9.2 mph - N/A   Partly Cloudy
11:53 AM 77.0 °F 37.0 °F 24% 29.91 in 10.0 mi SSE 9.2 mph 19.6 mph 0.00 in   Mostly Cloudy
12:53 PM 80.1 °F 37.9 °F 22% 29.89 in 10.0 mi South 17.3 mph 24.2 mph N/A   Clear
1:53 PM 82.0 °F 36.0 °F 19% 29.85 in 10.0 mi South 16.1 mph 25.3 mph N/A   Clear
2:53 PM 82.0 °F 32.0 °F 16% 29.82 in 10.0 mi SSW 9.2 mph - N/A   Clear
3:53 PM 82.0 °F 30.0 °F 15% 29.80 in 10.0 mi South 10.4 mph - N/A   Clear
4:53 PM 81.0 °F 33.1 °F 18% 29.78 in 10.0 mi SSE 11.5 mph - N/A   Clear
5:53 PM 78.1 °F 37.9 °F 24% 29.78 in 10.0 mi SSE 6.9 mph - N/A   Clear
6:53 PM 75.2 °F 39.2 °F 27% 29.92 in 10.0 mi SSE 6.9 mph - N/A   Clear
7:39 PM 71.6 °F 42.8 °F 35% 29.96 in 10.0 mi WSW 16.1 mph 26.5 mph 0.00 in Rain Light Rain
7:53 PM 70.0 °F 42.1 °F 36% 29.84 in 10.0 mi WSW 11.5 mph 23.0 mph 0.00 in Rain , Thunderstorm Light Rain
8:17 PM 69.8 °F 42.8 °F 38% 29.98 in 10.0 mi ESE 11.5 mph 17.3 mph 0.00 in   Overcast
8:53 PM 69.1 °F 43.0 °F 39% 29.83 in 10.0 mi ESE 6.9 mph - 0.00 in   Mostly Cloudy
9:53 PM 66.0 °F 45.0 °F 47% 29.83 in 10.0 mi South 9.2 mph - N/A   Mostly Cloudy
10:53 PM 66.9 °F 44.1 °F 44% 29.83 in 10.0 mi SSE 8.1 mph - N/A   Overcast
11:53 PM 69.1 °F 42.1 °F 38% 29.79 in 10.0 mi South 13.8 mph - N/A   Overcast